[[{"header":{"parameterUnit":"m.s-1","parameterCategory":1,"la1":30.2991,"la2":30.254,"lo1":-89.0895,"lo2":-89.0444,"dy":0.0017,"dx":0.0017,"nx":28,"ny":28,"refTime":"2023-05-23T21:00:00:Z","depth":0,"parameterNumber":2,"parameterNumberName":"U-component_of_WINDS"},"data":[0,0,0,0,0,0,0,0,0,0,0,0,0,0,0,0,0,0,0,0,0,0,0,0,0,0,0,0,0,0,0,0,0,0,0,0,0,0,0,0,0,0,0,0,0,0,0,0,0,0,0,0,0,0,0,0,0,0,0.5545,0.5545,0,0.5528,0.5528,0.5528,0.5472,0.5471,0.5469,0.5468,0.5455,0.5456,0.5457,0,0,0,0,0,0,0,0,0,0,0,0,0,0.5533,0.5533,0.5545,0.5545,0.5545,0.5528,0.5528,0.5528,0.5472,0.547,0.5469,0.5468,0.5455,0.5456,0.5457,0,0,0,0,0,0,0,0,0,0,0,0,0,0.5529,0.5533,0.5545,0.5515,0.5512,0.5528,0.5528,0.5528,0.5472,0.547,0.5469,0.5467,0.5455,0.5456,0.5457,0.5503,0,0,0.5461,0.5462,0,0,0,0,0,0,0,0,0.553,0.553,0.552,0.5517,0.5514,0.55,0.5519,0.552,0.5473,0.5488,0.5468,0.5466,0.5472,0.5472,0.5473,0.5502,0.5502,0.5461,0.5462,0.5462,0.5463,0,0,0,0,0,0,0,0.553,0.553,0.5539,0.552,0.5516,0.5503,0.5501,0.5519,0.5491,0.5486,0.5482,0.5481,0.547,0.5472,0.5472,0.5502,0.5461,0.5462,0.5463,0.5464,0.5566,0.5568,0,0,0,0,0,0,0.5534,0.5531,0.5539,0.5538,0.5517,0.5505,0.5502,0.5507,0.549,0.5486,0.5482,0.5478,0.5471,0.5471,0.5472,0.5522,0.5462,0.5464,0.5464,0.5564,0.5566,0.5568,0,0,0,0,0,0,0.5534,0.5535,0.554,0.5533,0.5533,0.5507,0.5513,0.5507,0.5509,0.5487,0.5483,0.5489,0.5469,0.547,0.5495,0.5521,0.5464,0.5465,0.5562,0.5565,0.5567,0.5625,0,0,0,0,0,0,0.5534,0.5536,0.5552,0.5534,0.5534,0.5563,0.5514,0.5508,0.551,0.5505,0.5492,0.5488,0.5468,0.5493,0.5496,0.5522,0.5466,0.5559,0.5563,0.5566,0.5621,0.563,0.5637,0,0,0,0,0,0.5534,0.5571,0.5553,0.5555,0.5553,0.5564,0.5564,0.5538,0.5513,0.5529,0.5515,0.5489,0.5518,0.5496,0.5499,0.5525,0.5557,0.5562,0.5566,0.5617,0.5628,0.5637,0,0,0,0,0,0,0.5595,0.5568,0.5548,0.558,0.5575,0.5555,0.5575,0.5551,0.5554,0.5548,0.5518,0.5515,0.5544,0.5538,0.5514,0.5568,0.5533,0.5538,0.5571,0.5581,0.5589,0.559,0.5467,0,0,0,0,0,0.5611,0.5621,0.5598,0.5629,0.5627,0.5601,0.5605,0.5585,0.5579,0.5577,0.5565,0.5561,0.5569,0.5575,0.5581,0.562,0.5616,0.564,0.5648,0.5655,0.5659,0.5677,0.5687,0.5583,0.5583,0.5583,0,0,0.5647,0.5634,0.5642,0.564,0.5634,0.5645,0.56,0.5615,0.5623,0.558,0.5601,0.5593,0.5586,0.5617,0.5631,0.5613,0.5687,0.566,0.5666,0.5667,0.5683,0.5693,0.5701,0.5586,0.5585,0.5585,0,0,0.5717,0.5708,0.5732,0.5725,0.5715,0.5698,0.5703,0.5687,0.5678,0.5699,0.5667,0.5677,0.5692,0.5687,0.5688,0.5754,0.5729,0.5758,0.58,0.5818,0.5827,0.5834,0.5856,0.5864,0.5762,0.5763,0.5763,0,0.5763,0.5777,0.5747,0.5763,0.5763,0.5722,0.5746,0.5742,0.5735,0.5736,0.5716,0.5732,0.5725,0.5754,0.577,0.5772,0.5777,0.5758,0.5828,0.5834,0.5841,0.5861,0.587,0.5766,0.5765,0.5765,0.5765,0,0.5833,0.5844,0.5864,0.5855,0.5858,0.5878,0.5851,0.5858,0.5838,0.5823,0.5844,0.5834,0.5836,0.5842,0.5824,0.5868,0.5857,0.5833,0.5797,0.5854,0.5873,0.5881,0.5771,0.5769,0.5768,0.5768,0,0,0.5941,0.5914,0.5922,0.5917,0.5902,0.591,0.5928,0.5928,0.5933,0.593,0.5944,0.5957,0.5933,0.5933,0.5914,0.593,0.5981,0.5904,0.5903,0.5917,0.6027,0.6044,0.6054,0.5965,0.5966,0.5968,0.6027,0,0.6006,0.6032,0.6005,0.6038,0.6047,0.6008,0.6023,0.6016,0.6003,0.6009,0.5995,0.6003,0.5973,0.5972,0.5986,0.5972,0.6003,0.5968,0.5977,0.5978,0.5978,0.6064,0.6082,0.6139,0.6035,0.6036,0.6037,0,0.6085,0.6082,0.6115,0.6095,0.6098,0.6112,0.6109,0.6116,0.6107,0.6096,0.6095,0.6071,0.6087,0.6053,0.6075,0.6052,0.6054,0.6048,0.6049,0.6048,0.601,0.6064,0.6157,0.6165,0.6048,0.6048,0.6047,0,0.6157,0.6163,0.6182,0.6179,0.6158,0.6168,0.616,0.6149,0.6151,0.6149,0.615,0.6151,0.6151,0.6153,0.613,0.6107,0.6154,0.6119,0.6145,0.6146,0.6156,0.6155,0.6249,0.6161,0.6161,0.616,0.616,0,0.6231,0.6253,0.6214,0.6226,0.6248,0.6218,0.6241,0.6229,0.622,0.6229,0.6197,0.6207,0.6176,0.6183,0.6165,0.6185,0.6186,0.6178,0.6172,0.6179,0.618,0.618,0.6174,0.6163,0.6162,0.6162,0.6161,0,0.6316,0.6291,0.6309,0.6287,0.6282,0.6299,0.628,0.6291,0.6275,0.6287,0.6288,0.6263,0.6269,0.6247,0.625,0.6238,0.6266,0.6256,0.6269,0.6265,0.6292,0.6289,0.6387,0.6398,0.6304,0.6305,0.6306,0,0.6364,0.6379,0.6357,0.636,0.6353,0.6358,0.6359,0.6329,0.6331,0.6321,0.6333,0.6336,0.6336,0.6348,0.6331,0.6333,0.6321,0.6355,0.6321,0.6327,0.6319,0.6317,0.6318,0.6362,0.6363,0.6364,0.6365,0,0.6451,0.6437,0.6438,0.6434,0.6435,0.6432,0.6426,0.6431,0.6399,0.6403,0.6407,0.6408,0.6409,0.6412,0.641,0.6403,0.6378,0.6375,0.6381,0.6388,0.6394,0.6389,0.6286,0.6373,0.6372,0.6372,0.6371,0.6371,0.6517,0.6527,0.6513,0.6515,0.6507,0.6502,0.6509,0.6493,0.6496,0.6493,0.6477,0.6484,0.6474,0.6468,0.6463,0.6469,0.6453,0.6462,0.6464,0.6466,0.647,0.6394,0.6469,0.6469,0.6468,0.6468,0.6468,0,0.66,0.6588,0.659,0.6582,0.6583,0.6559,0.6551,0.6554,0.656,0.6552,0.6552,0.6557,0.6559,0.6542,0.6542,0.655,0.6539,0.6551,0.6549,0.6547,0.6485,0.6479,0.656,0.656,0.656,0.656,0.656,0.656,0.6643,0.6659,0.6643,0.6655,0.6644,0.6649,0.6646,0.6641,0.6634,0.664,0.6641,0.6629,0.6617,0.6616,0.6617,0.6612,0.6613,0.6628,0.6619,0.6561,0.6552,0.6544,0.6537,0.6629,0.6629,0.6681,0.6681,0.6682]},{"header":{"parameterUnit":"m.s-1","parameterCategory":1,"la1":30.2991,"la2":30.254,"lo1":-89.0895,"lo2":-89.0444,"dy":0.0017,"dx":0.0017,"nx":28,"ny":28,"refTime":"2023-05-23T21:00:00:Z","depth":0,"parameterNumber":3,"parameterNumberName":"V-component_of_WINDS"},"data":[0,0,0,0,0,0,0,0,0,0,0,0,0,0,0,0,0,0,0,0,0,0,0,0,0,0,0,0,0,0,0,0,0,0,0,0,0,0,0,0,0,0,0,0,0,0,0,0,0,0,0,0,0,0,0,0,0,0,0.0541,0.054,0,0.0411,0.0409,0.0408,0.0215,0.0212,0.0208,0.0205,0.0078,0.0078,0.0078,0,0,0,0,0,0,0,0,0,0,0,0,0,0.0628,0.0627,0.0541,0.0539,0.0538,0.0411,0.0409,0.0408,0.0216,0.0212,0.0207,0.0204,0.0079,0.0078,0.0078,0,0,0,0,0,0,0,0,0,0,0,0,0,0.0554,0.0627,0.0541,0.0427,0.0415,0.0411,0.0409,0.0407,0.0217,0.0211,0.0206,0.0202,0.0079,0.0078,0.0078,0.0178,0,0,0.0077,0.0077,0,0,0,0,0,0,0,0,0.0558,0.0551,0.0445,0.0435,0.0422,0.0324,0.0393,0.0331,0.0218,0.0292,0.0205,0.0199,0.0165,0.0157,0.0144,0.0172,0.0167,0.0077,0.0077,0.0077,0.0077,0,0,0,0,0,0,0,0.0564,0.0555,0.049,0.0444,0.0429,0.0383,0.0367,0.0381,0.0259,0.0285,0.0271,0.0258,0.0157,0.0145,0.014,0.0165,0.0077,0.0077,0.0077,0.0076,0.0264,0.0269,0,0,0,0,0,0,0.0585,0.0561,0.0494,0.0486,0.0478,0.0386,0.0368,0.0361,0.0258,0.0237,0.0262,0.0249,0.0148,0.014,0.0134,0.0241,0.0077,0.0076,0.0076,0.0259,0.0266,0.0271,0,0,0,0,0,0,0.0588,0.0581,0.0499,0.0519,0.0505,0.039,0.0383,0.0361,0.0347,0.0241,0.0219,0.0271,0.0143,0.0135,0.0167,0.0234,0.0076,0.0076,0.0253,0.0261,0.0268,0.0458,0,0,0,0,0,0,0.0591,0.0583,0.0619,0.0521,0.0505,0.0533,0.0387,0.0362,0.0347,0.0329,0.0243,0.0224,0.0139,0.0169,0.0167,0.0231,0.0076,0.0247,0.0257,0.0266,0.0445,0.0471,0.0494,0,0,0,0,0,0.0595,0.068,0.0622,0.0615,0.0547,0.0538,0.0528,0.0426,0.0353,0.0388,0.0319,0.0227,0.0228,0.0174,0.017,0.0235,0.0242,0.0254,0.0265,0.0434,0.0466,0.0493,0,0,0,0,0,0,0.0791,0.0665,0.0599,0.0655,0.0608,0.0505,0.0546,0.0464,0.0439,0.0423,0.0299,0.0282,0.0329,0.0286,0.0228,0.0324,0.0221,0.0232,0.035,0.038,0.0404,0.0412,0.0076,0,0,0,0,0,0.084,0.0841,0.0732,0.0792,0.0771,0.0664,0.0656,0.0581,0.0528,0.0508,0.0441,0.0396,0.0384,0.038,0.0365,0.0439,0.0416,0.0482,0.0506,0.0526,0.0537,0.0569,0.0596,0.0309,0.0309,0.0309,0,0,0.0943,0.0874,0.0883,0.0829,0.0784,0.0788,0.0648,0.066,0.0662,0.0511,0.0535,0.0485,0.0426,0.0478,0.0498,0.0443,0.0611,0.0541,0.0558,0.0557,0.0584,0.0611,0.0635,0.0317,0.0316,0.0315,0,0,0.1131,0.1081,0.1122,0.1079,0.1011,0.0939,0.095,0.0859,0.0818,0.0841,0.0726,0.0728,0.0713,0.0674,0.0652,0.0824,0.0737,0.0823,0.0948,0.0981,0.1004,0.1023,0.1081,0.1103,0.0835,0.0835,0.0835,0,0.1268,0.1267,0.1156,0.1172,0.1151,0.1012,0.1053,0.1018,0.0951,0.094,0.0879,0.0855,0.0806,0.0845,0.0886,0.0875,0.0882,0.0831,0.1009,0.1027,0.1044,0.1097,0.112,0.0846,0.0844,0.0843,0.0842,0,0.1437,0.1439,0.1482,0.1415,0.14,0.143,0.1323,0.1321,0.1248,0.1182,0.1205,0.1141,0.1108,0.1113,0.1043,0.1142,0.1109,0.1032,0.0924,0.1083,0.1132,0.1152,0.0861,0.0857,0.0854,0.0851,0,0,0.1744,0.1613,0.1631,0.1597,0.1512,0.1512,0.1536,0.1501,0.15,0.1459,0.1474,0.1464,0.1389,0.1365,0.129,0.1319,0.1455,0.1236,0.1233,0.1276,0.1556,0.1613,0.1638,0.1398,0.1401,0.1404,0.1559,0,0.1912,0.1941,0.184,0.1896,0.1895,0.1763,0.1783,0.1734,0.1673,0.1664,0.1598,0.1591,0.1495,0.1479,0.1503,0.1433,0.1509,0.1421,0.141,0.1411,0.1425,0.1664,0.1724,0.1874,0.1578,0.1581,0.1584,0,0.2112,0.2076,0.2131,0.2039,0.2035,0.2055,0.2013,0.2008,0.1949,0.1902,0.1874,0.1785,0.1802,0.1702,0.1722,0.1664,0.1654,0.162,0.1623,0.1615,0.1505,0.166,0.192,0.1941,0.1613,0.1611,0.1608,0,0.2325,0.2292,0.2319,0.2296,0.2191,0.2207,0.2165,0.21,0.2085,0.205,0.2038,0.2008,0.199,0.1968,0.1873,0.1809,0.1904,0.1796,0.1865,0.1867,0.1888,0.1887,0.2147,0.1888,0.1888,0.1887,0.1887,0,0.2521,0.2559,0.2413,0.2429,0.2468,0.2353,0.2394,0.2339,0.2283,0.2286,0.2173,0.2179,0.2055,0.2048,0.1975,0.2,0.1995,0.1957,0.1936,0.1965,0.1969,0.1954,0.194,0.1893,0.1892,0.1891,0.189,0,0.2764,0.2668,0.2688,0.2587,0.2562,0.2595,0.2508,0.2519,0.2451,0.2457,0.2452,0.2346,0.2331,0.2235,0.22,0.215,0.2202,0.2163,0.2221,0.2207,0.2279,0.2272,0.2535,0.2563,0.2291,0.2294,0.2296,0,0.2893,0.2919,0.2819,0.2812,0.2773,0.2765,0.2747,0.2636,0.2623,0.2556,0.2576,0.2551,0.2525,0.2508,0.2428,0.24,0.2357,0.2451,0.2352,0.2379,0.2354,0.2352,0.2353,0.2472,0.2475,0.2478,0.2481,0,0.3132,0.3083,0.3061,0.3023,0.3005,0.297,0.2928,0.293,0.2806,0.2798,0.2779,0.276,0.2721,0.2698,0.2656,0.2612,0.2526,0.2513,0.2526,0.2554,0.2585,0.2565,0.2275,0.2507,0.2504,0.2502,0.2501,0.25,0.3319,0.3334,0.3265,0.3244,0.3201,0.3164,0.3168,0.31,0.3082,0.304,0.2977,0.2968,0.2906,0.284,0.2804,0.2795,0.2745,0.2766,0.277,0.2776,0.279,0.259,0.2788,0.2787,0.2786,0.2785,0.2784,0,0.3548,0.3496,0.3479,0.3422,0.3406,0.3325,0.3274,0.3266,0.3259,0.3208,0.3184,0.3163,0.3139,0.3057,0.3025,0.3034,0.2993,0.3029,0.3025,0.3016,0.2838,0.2828,0.3062,0.3062,0.3062,0.3062,0.3062,0.3062,0.3665,0.3684,0.3627,0.3624,0.3573,0.3561,0.3538,0.3504,0.3462,0.3443,0.3421,0.3368,0.3304,0.3266,0.3241,0.3217,0.3209,0.3258,0.3221,0.3056,0.3029,0.3004,0.2993,0.3258,0.3258,0.3398,0.34,0.3401]}]]